Theta_e
369 368 368 368 369 369 369 369 368 367 366 365 364 364 364 364 363 362 363 359 357 356 355 353 351 350 348 349 348 348 349 349 349 350 349 347 349 347 347 346 344 345 346 346 345 346 347 346 346 347 348 345 346 345 344 345 345 345 346 345 342 341 339 336 331 331 336 340 339 338 341 342 335 342 341 341 342 342 342 342 342 339 337 337 338
369 368 369 369 368 369 369 369 369 368 366 365 364 364 364 364 365 365 361 360 357 355 355 354 353 351 348 349 349 349 350 350 349 349 348 347 346 346 345 346 344 343 344 343 345 346 348 345 344 345 347 345 346 343 343 341 342 340 341 340 339 339 341 335 333 331 329 336 337 342 339 344 336 342 336 337 337 339 339 341 341 339 336 335 333
369 369 369 368 368 369 370 369 368 367 366 365 362 361 364 365 366 364 361 359 358 356 354 354 353 352 349 349 349 349 350 350 348 349 347 347 345 344 343 345 344 343 342 343 343 346 344 344 343 343 344 343 344 343 343 342 342 341 340 341 339 338 340 339 335 330 329 331 338 335 337 341 339 339 342 341 339 338 337 338 336 336 337 337 336
368 370 369 368 368 368 369 370 368 365 363 364 361 360 361 364 365 364 362 359 357 357 356 354 354 352 350 349 349 349 349 348 348 348 347 347 346 344 343 343 345 343 342 342 342 343 343 343 342 341 342 342 343 344 344 343 343 344 342 341 341 340 340 341 339 333 332 329 333 334 337 336 337 339 340 340 336 335 335 336 338 336 336 337 334
368 368 367 365 366 368 368 368 368 367 364 364 363 360 361 362 363 362 361 358 358 357 356 355 354 352 350 350 348 348 349 348 347 345 347 347 346 344 344 344 343 343 343 343 345 344 343 342 342 343 344 341 341 341 342 342 342 342 341 341 340 340 339 339 338 338 334 331 331 335 337 336 337 338 339 335 336 336 336 335 333 333 335 334 334
365 366 367 367 367 367 367 367 367 366 365 363 363 361 360 362 362 361 360 359 358 356 356 354 352 350 349 349 348 347 348 348 347 345 346 346 345 344 344 345 343 344 344 344 344 345 344 345 344 345 343 342 341 342 343 342 342 341 340 341 341 340 339 338 338 338 336 333 332 331 334 333 334 336 338 337 334 333 333 335 337 338 337 335 333
363 368 368 364 366 367 367 367 367 367 366 365 365 363 360 360 361 360 360 359 358 355 354 353 351 350 349 349 349 346 346 348 347 346 345 345 345 344 343 344 344 343 344 343 343 344 344 344 344 344 343 343 342 341 342 343 342 341 342 341 340 339 338 337 337 337 335 333 332 332 330 333 333 331 337 340 338 335 331 330 330 333 335 334 333
362 367 367 365 366 367 368 368 368 368 367 367 366 364 361 361 362 363 361 360 358 356 353 352 350 350 348 348 348 346 346 347 348 347 346 345 345 345 344 343 342 342 343 344 343 342 343 343 342 343 343 344 343 343 342 341 343 341 342 342 340 339 337 337 337 335 333 332 331 331 333 332 334 335 335 335 333 333 334 331 327 328 331 335 335
360 365 367 366 366 368 369 369 369 369 369 368 366 365 364 363 364 364 362 360 358 356 355 351 349 348 348 348 346 346 346 346 347 346 345 345 344 343 344 344 342 342 341 341 342 342 342 342 341 341 344 347 342 341 341 342 342 341 342 342 341 339 337 337 336 334 334 334 331 331 330 330 331 330 329 328 328 327 333 334 330 330 331 330 332
360 364 367 367 369 370 371 371 370 371 369 367 367 366 365 364 363 363 361 359 358 356 354 351 349 347 347 347 346 345 345 346 342 335 338 345 345 344 344 343 343 343 343 342 341 343 342 341 341 348 349 349 344 338 334 334 336 340 342 343 342 340 338 336 334 334 333 331 330 330 329 327 327 329 329 330 332 334 331 330 328 331 331 329 330
361 364 367 369 371 372 372 372 372 370 369 368 368 367 365 364 363 363 362 360 357 356 353 348 347 346 346 346 345 345 346 346 334 330 333 337 343 344 343 344 344 344 344 344 343 342 341 342 342 346 347 345 343 340 335 332 331 329 329 331 337 340 337 335 334 334 332 330 331 331 328 327 328 329 328 329 330 329 329 329 329 329 327 324 322
361 364 369 371 372 373 373 373 372 371 369 368 368 367 365 364 364 364 363 360 359 356 351 348 347 346 346 346 345 345 346 337 328 328 331 332 338 344 343 343 342 343 343 343 343 343 343 342 341 343 343 342 344 344 337 332 329 328 326 325 326 326 330 333 332 331 331 329 329 328 327 326 328 330 329 328 330 331 331 331 329 328 326 324 324
363 366 371 372 373 374 374 372 370 369 368 368 368 367 366 364 364 363 361 361 360 355 351 348 346 346 346 346 344 345 345 332 326 326 328 329 332 340 343 342 341 341 342 343 343 343 343 343 342 343 344 350 346 346 346 342 330 324 325 326 326 325 324 323 325 332 332 330 328 328 329 329 328 330 333 334 336 330 330 328 328 328 327 326 326
365 368 372 372 374 373 372 370 369 368 368 367 367 366 365 364 364 363 361 361 358 354 350 348 348 348 347 347 345 346 346 328 325 324 326 326 327 333 344 343 342 342 342 341 341 343 343 343 342 342 343 343 344 344 343 343 343 341 337 335 335 335 327 322 321 320 325 329 330 329 332 333 331 333 338 339 333 329 330 329 328 326 326 325 329
367 370 372 373 372 371 370 369 368 367 367 366 365 365 364 365 364 362 360 358 354 351 348 346 347 348 347 346 345 346 347 324 322 322 322 322 323 328 341 342 341 342 340 341 346 348 347 345 344 343 345 345 346 344 343 342 342 343 344 341 340 341 339 337 337 332 330 329 328 327 330 332 332 332 337 339 336 334 334 331 331 330 329 330 328
368 371 371 371 370 370 369 368 367 366 365 365 364 363 363 364 362 361 359 357 355 352 350 347 347 347 347 345 344 347 345 320 321 320 319 319 322 336 339 339 340 338 340 347 344 342 343 342 342 343 342 343 341 336 339 345 345 344 340 338 336 335 335 335 332 333 336 339 338 335 334 334 329 334 333 330 330 331 329 327 326 326 324 322 321
368 371 370 369 369 369 368 366 365 364 363 361 360 360 362 363 363 363 360 357 354 350 349 348 348 346 346 349 347 346 339 322 318 316 317 320 324 337 340 340 341 340 346 343 345 344 343 343 339 338 338 339 338 327 329 335 339 338 334 334 336 336 336 338 329 324 323 322 320 321 322 320 317 316 315 316 324 329 330 325 322 323 320 318 319
371 371 370 369 368 368 367 364 363 362 360 359 358 358 359 362 363 363 360 356 353 351 351 349 349 348 345 347 345 346 339 323 317 315 318 318 327 338 341 341 340 341 345 345 345 345 343 342 341 339 336 341 328 324 326 334 337 338 336 336 334 334 334 336 338 335 322 320 320 320 319 320 320 319 318 316 316 321 323 319 321 323 321 320 317
371 370 369 369 368 366 365 364 361 359 359 357 356 356 357 359 361 362 360 359 356 354 350 349 349 349 347 347 345 344 340 326 316 316 315 316 327 341 342 340 341 343 344 340 336 337 338 339 340 335 336 336 321 321 322 332 336 336 335 333 331 331 333 337 337 335 334 332 332 332 330 326 329 331 331 324 320 322 323 323 324 323 321 320 319
371 369 368 367 366 365 363 362 360 358 359 358 357 358 358 357 358 358 358 357 356 354 351 349 346 346 345 344 345 345 340 330 324 315 315 314 321 343 344 343 342 343 341 337 335 334 337 337 335 326 323 323 320 315 315 320 334 336 335 331 330 330 331 330 335 332 333 332 332 332 331 332 332 331 333 333 331 331 327 326 325 324 323 323 323
370 368 367 364 363 362 361 360 358 358 359 357 357 357 357 356 357 359 356 356 354 350 348 346 344 340 338 340 341 338 339 338 332 314 312 313 318 329 342 338 339 342 336 335 334 333 334 336 338 330 323 319 316 313 310 311 322 333 333 331 332 325 319 328 331 331 330 330 330 330 331 331 330 329 329 330 331 330 329 329 330 329 327 324 323
368 366 365 363 361 360 358 360 358 357 358 359 358 357 359 360 359 359 356 355 351 349 347 344 343 340 335 336 341 340 336 332 328 314 312 312 314 319 337 341 343 338 334 332 332 333 333 334 338 333 318 315 313 309 307 307 311 327 331 311 307 313 324 326 327 326 326 326 326 326 326 325 325 326 326 327 326 325 324 324 326 327 329 327 325
366 364 363 361 359 358 358 357 356 357 358 359 358 357 359 360 360 358 355 352 350 348 348 343 342 340 338 339 337 340 340 333 322 323 313 311 310 315 322 333 328 339 335 332 332 334 337 340 332 313 310 308 305 304 304 307 311 321 311 308 309 310 318 324 325 325 325 323 324 324 324 324 325 325 325 324 324 326 327 326 323 321 322 323 323
364 362 359 359 358 356 357 356 357 358 358 357 357 357 357 357 356 355 354 351 349 348 347 342 339 337 336 336 340 341 340 336 325 324 322 313 310 310 314 317 322 334 337 338 340 340 341 340 320 303 299 298 300 303 305 308 321 309 309 309 312 316 321 323 323 323 324 323 323 324 324 325 325 324 324 325 325 327 326 323 322 320 320 320 320
361 359 358 357 356 355 355 355 355 356 356 356 354 353 353 354 352 353 352 351 349 346 345 342 341 340 337 337 339 341 341 339 335 326 321 315 311 310 312 313 311 312 329 334 339 331 314 305 300 300 301 300 303 305 306 308 306 305 307 310 316 321 322 323 323 324 324 325 324 323 323 324 324 326 329 330 328 326 324 322 320 320 319 319 320
359 358 357 356 355 354 354 353 355 355 354 354 354 353 352 350 350 350 350 348 348 346 345 342 339 337 336 337 338 338 338 337 334 330 324 321 317 312 312 314 316 315 324 331 315 309 306 304 303 304 305 307 313 319 323 322 309 309 309 311 318 320 321 322 324 326 325 323 323 321 322 323 324 325 325 325 323 319 319 318 318 317 317 318 315
356 357 356 354 355 354 352 351 352 352 352 352 352 352 352 351 350 348 348 346 346 344 342 340 337 335 335 336 337 336 336 337 336 332 330 328 327 321 318 319 318 317 321 326 321 319 312 312 316 314 317 316 320 322 322 315 314 313 317 319 322 323 325 326 326 325 325 324 322 322 322 323 324 323 324 322 320 321 322 320 317 315 315 314 312
354 353 352 352 352 351 349 352 351 350 348 346 346 348 350 349 348 348 347 346 343 341 340 338 336 335 336 336 335 334 334 336 336 334 332 333 331 328 328 328 327 327 327 329 331 330 327 319 318 322 324 322 321 322 324 325 325 324 324 325 324 326 327 325 323 327 325 323 322 323 322 323 322 322 320 318 316 317 320 320 317 315 314 312 309
352 351 350 350 349 350 349 350 344 338 331 322 316 314 315 323 338 333 326 325 342 342 341 340 339 339 339 338 335 332 333 333 335 326 334 322 328 328 328 328 329 328 326 319 332 334 331 326 325 325 325 325 324 325 325 325 326 326 327 327 326 326 325 323 323 325 325 324 322 322 323 321 319 318 316 315 317 318 320 317 317 313 312 311 309
349 347 347 346 347 347 347 344 339 336 331 325 321 316 308 297 304 327 326 313 305 307 322 339 341 340 341 340 337 336 334 338 310 309 311 311 312 311 305 304 307 320 317 315 328 333 330 328 327 327 327 326 324 325 324 325 325 324 325 321 323 322 324 324 322 323 324 324 323 324 319 317 316 316 315 315 315 316 317 313 311 312 311 310 309
347 346 345 344 343 346 344 340 338 337 335 332 330 327 323 315 297 296 302 303 300 298 299 304 316 324 335 329 311 301 303 299 298 298 299 299 297 296 296 297 296 297 306 333 328 326 326 324 323 323 323 322 324 325 326 325 324 323 322 322 322 321 321 319 325 321 323 322 322 321 320 319 315 316 313 312 312 313 311 312 311 313 312 309 307
347 345 344 345 344 346 343 340 339 338 336 335 333 330 328 325 319 300 295 297 298 295 296 300 306 310 312 316 316 312 301 297 296 297 297 297 296 295 294 294 295 299 302 311 329 327 325 325 324 324 325 323 324 327 324 324 324 323 322 320 320 325 324 322 325 321 320 318 318 315 314 314 314 312 312 312 312 310 309 310 310 309 309 309 308
347 345 345 345 345 345 341 340 339 339 338 337 335 334 331 328 324 319 310 298 295 294 294 295 298 301 303 304 308 308 303 297 296 295 296 295 295 294 293 292 292 295 307 322 323 321 324 324 323 324 324 325 329 327 328 321 321 321 321 324 322 321 323 324 323 324 319 320 317 314 316 316 313 312 312 311 309 306 308 308 309 309 309 307 308
344 344 342 343 344 343 341 340 339 339 339 339 338 337 335 333 330 325 322 321 320 309 300 296 295 295 294 295 295 295 295 295 296 296 295 295 296 298 300 301 290 292 308 326 322 323 325 323 323 325 326 327 323 322 326 326 326 322 320 320 321 321 323 323 323 321 318 316 316 312 312 310 310 309 308 308 308 308 308 308 307 307 308 308 305
347 346 348 346 343 342 341 340 339 339 337 339 338 337 336 336 333 329 328 327 327 325 321 314 300 296 303 298 293 293 294 294 295 294 294 295 296 298 305 321 321 321 320 320 321 321 322 323 323 326 321 321 321 320 322 320 321 322 323 320 320 322 317 315 315 312 312 312 314 312 310 308 307 307 307 308 308 308 307 307 306 307 307 306 306
343 343 344 344 342 342 341 342 341 340 338 338 339 337 336 335 334 332 330 331 331 327 324 317 308 297 293 292 292 292 292 293 293 293 293 293 294 302 320 321 321 321 320 321 322 324 325 327 323 325 328 323 323 322 322 323 323 323 324 320 319 317 316 319 315 314 312 310 309 310 307 308 309 308 308 307 308 308 306 306 307 307 307 306 307
339 339 340 342 342 340 341 341 340 339 335 335 335 336 335 335 334 335 334 333 332 327 320 314 312 310 308 305 297 293 292 293 293 293 292 292 292 308 320 322 322 323 321 322 323 328 325 327 327 325 326 326 324 324 328 323 322 323 318 321 322 320 316 313 315 314 313 309 308 309 309 308 310 309 307 306 307 306 306 307 306 306 306 307 307
340 340 342 343 342 342 341 339 337 333 337 335 339 337 333 333 334 333 332 332 329 324 321 319 318 317 316 313 312 310 301 294 293 294 294 296 306 314 317 318 319 322 324 323 326 326 325 327 325 326 325 324 321 323 321 322 325 324 322 324 319 317 312 317 315 317 315 311 309 310 310 311 312 309 309 307 306 305 306 306 304 305 306 308 307
340 328 328 330 333 339 337 336 336 335 335 335 334 334 332 331 332 332 333 330 328 326 324 323 323 322 320 316 316 312 311 313 315 316 315 315 316 317 317 318 320 322 326 328 324 325 325 327 324 326 325 325 325 324 321 319 319 320 318 315 316 318 317 316 316 316 314 313 312 315 312 311 310 312 311 306 305 306 305 304 305 306 305 305 305
336 336 334 331 335 336 338 336 335 335 335 335 333 334 334 333 334 333 332 331 329 327 325 325 324 325 321 319 317 316 317 318 319 319 318 318 318 319 321 320 322 327 326 326 327 326 323 325 327 326 326 320 320 321 320 319 318 316 315 315 317 312 314 314 314 315 314 315 313 313 311 311 312 310 308 307 306 306 305 305 305 306 306 306 306
335 336 337 331 332 337 338 335 334 335 335 336 336 334 334 334 334 332 332 331 329 328 327 326 327 327 322 317 309 311 321 321 320 321 320 320 320 321 322 324 324 327 323 325 324 323 325 325 323 325 323 324 324 323 320 321 318 313 318 312 313 313 310 311 311 311 311 313 313 312 312 313 310 307 304 306 305 305 307 306 305 306 306 306 306
334 333 333 336 336 336 335 333 334 336 338 336 335 333 333 333 332 333 331 330 329 328 328 329 328 325 314 305 303 304 319 323 324 323 322 321 322 323 324 328 332 326 326 325 329 323 323 324 322 322 322 321 321 321 320 317 314 317 315 313 314 312 309 311 314 313 314 310 312 312 313 309 309 308 307 304 306 306 305 304 305 306 306 306 306
332 331 333 336 334 333 332 332 335 335 335 333 332 333 333 332 330 331 329 329 328 327 327 325 324 322 317 307 307 305 321 325 324 325 323 323 323 326 326 325 325 326 328 329 328 327 324 320 320 320 320 319 322 319 319 319 320 314 315 312 312 310 311 312 311 312 313 313 312 308 308 306 307 307 307 307 306 306 304 305 306 306 306 306 305
333 331 332 332 333 334 335 335 334 333 333 334 333 330 330 332 329 329 328 328 326 327 326 325 323 322 320 315 313 317 322 322 324 326 327 325 326 324 325 325 324 323 324 326 326 327 324 322 319 323 326 324 322 318 314 312 313 313 314 311 308 309 309 309 308 309 310 307 307 307 307 308 308 307 306 306 306 305 305 306 306 306 306 305 305
334 335 332 331 331 334 335 335 331 332 330 329 329 329 329 328 328 327 326 326 325 325 325 324 324 323 322 322 322 321 322 322 322 325 324 323 322 322 322 323 322 324 323 323 326 323 321 320 318 318 317 316 314 315 315 314 313 316 314 312 311 309 312 313 312 308 308 309 308 307 306 305 306 306 305 305 306 306 304 305 305 307 305 305 304
333 335 332 331 332 331 330 331 331 330 328 327 326 327 327 327 327 326 325 326 324 323 323 324 324 323 321 322 321 320 321 322 323 322 322 321 321 321 321 321 318 323 319 321 320 318 316 317 315 315 316 319 316 314 312 313 313 312 313 312 310 309 307 308 308 308 307 307 307 306 306 305 305 304 305 306 306 306 305 306 307 307 306 304 304
335 333 331 332 330 330 330 332 330 330 328 326 326 326 326 326 327 326 325 325 325 323 322 323 323 322 321 322 320 321 320 320 320 321 321 321 322 321 321 320 317 316 317 317 321 318 317 315 314 314 315 315 316 315 313 315 313 313 308 310 312 305 303 305 305 304 304 305 305 303 302 301 302 304 306 307 306 305 306 306 306 307 305 304 304
335 331 331 334 330 330 330 330 329 327 327 326 327 325 324 325 325 324 324 324 322 322 322 323 322 321 321 321 320 320 319 320 320 322 321 320 319 320 323 324 320 318 318 319 319 319 317 317 318 315 318 318 315 314 315 314 312 313 309 301 298 298 297 299 304 302 299 300 300 300 300 301 302 304 305 306 306 305 306 305 305 304 304 304 305
329 328 329 330 329 328 328 327 327 326 326 325 324 324 322 324 323 323 323 322 321 321 322 320 320 320 320 320 320 319 320 320 320 319 319 319 324 322 322 320 320 317 317 317 318 317 319 318 317 319 315 319 317 313 310 311 307 308 302 298 295 291 289 293 296 297 295 301 302 302 302 303 303 304 305 306 306 307 307 306 304 304 304 305 305
330 329 329 328 328 326 328 327 326 326 325 325 323 322 321 321 321 320 320 320 320 320 321 321 320 318 318 317 318 318 318 319 318 320 321 321 322 322 322 322 320 319 318 320 317 316 316 317 317 316 315 315 314 313 310 309 308 306 300 296 290 288 287 287 288 291 295 298 297 298 299 300 301 302 304 305 307 307 306 304 303 303 304 304 305
328 328 328 327 327 327 326 327 326 324 324 321 320 321 320 320 320 320 320 318 317 320 319 320 317 317 320 319 319 321 318 319 320 319 318 319 322 322 321 320 320 317 319 319 319 319 316 315 314 314 313 313 312 312 311 309 309 303 295 291 289 288 289 293 298 288 288 292 295 296 298 300 301 302 304 305 306 306 306 305 304 304 304 304 305
Wind_Speed
18 17 15 15 15 16 16 15 16 14 14 13 12 12 11 10 11 10 10 10 10 11 12 12 11 11 11 10 10 10 9 8 8 7 7 7 5 6 5 8 7 5 4 4 5 5 4 3 3 3 4 5 4 4 4 3 4 4 4 4 5 4 5 5 6 6 4 4 4 3 3 3 4 2 3 2 3 4 6 4 4 5 6 6 6
18 16 15 15 17 17 17 16 15 14 14 14 13 12 12 11 11 10 11 11 11 12 13 11 11 11 11 10 9 9 9 9 9 8 8 8 8 6 5 6 8 7 5 5 5 3 3 4 4 4 3 4 3 3 4 4 4 4 4 5 5 5 5 5 5 4 5 3 4 3 3 2 4 2 4 4 4 5 5 3 3 3 5 5 6
18 15 15 16 17 17 16 16 16 16 16 14 15 15 13 12 11 12 11 11 11 11 12 12 12 12 11 10 9 9 10 10 9 9 10 10 10 7 7 6 7 7 7 6 6 4 4 4 4 4 4 4 3 3 3 4 4 4 4 3 4 4 3 4 4 5 5 5 2 3 2 2 2 2 3 3 4 4 4 4 4 5 5 5 4
19 16 16 17 18 17 17 16 17 18 18 15 17 17 16 14 12 13 12 11 12 11 12 12 12 12 11 10 9 9 12 11 10 10 11 11 9 8 7 7 6 7 7 7 6 5 5 4 5 6 5 5 4 4 4 4 4 4 4 4 4 4 3 3 3 3 4 6 3 3 2 4 4 3 3 3 5 5 5 4 4 4 4 4 4
18 18 18 20 19 17 18 17 17 18 18 16 19 19 17 16 14 15 13 13 13 12 11 11 11 12 12 12 13 11 12 12 11 11 10 10 10 9 8 8 7 7 7 6 6 6 6 7 7 6 5 5 5 5 5 5 5 4 4 4 5 4 4 4 4 4 4 6 5 3 3 4 4 4 4 5 4 4 5 6 6 6 5 5 5
20 19 20 19 17 19 17 17 17 19 19 17 19 18 16 14 14 14 14 15 14 14 14 12 12 13 13 13 13 12 11 11 12 11 11 11 10 10 9 8 8 7 7 7 6 6 5 5 5 5 5 6 6 5 5 6 5 5 5 5 4 4 5 5 4 4 4 5 5 6 4 5 4 4 4 5 5 5 4 4 3 3 3 3 4
16 18 19 20 17 17 17 17 16 18 15 15 14 15 16 17 17 16 15 15 15 15 15 14 13 13 13 11 12 12 12 12 12 11 10 11 10 10 10 9 7 7 6 7 7 7 7 6 6 7 7 7 6 6 5 5 5 5 5 5 5 5 5 5 5 5 5 5 5 6 6 5 5 6 4 4 4 5 5 4 6 5 5 6 7
16 17 17 17 16 17 17 16 16 15 15 14 14 13 14 13 13 13 13 15 16 15 15 15 13 13 13 12 12 12 12 11 11 11 11 10 10 10 9 9 9 8 8 8 8 8 8 8 8 8 8 7 7 6 7 6 4 5 5 5 5 6 5 5 5 5 5 5 6 5 4 5 4 4 5 5 5 4 5 5 7 6 7 6 6
15 16 17 15 15 15 15 14 14 14 14 13 13 13 13 12 12 14 14 14 13 16 15 15 14 14 14 13 13 12 12 12 11 12 12 11 11 12 12 11 10 9 9 9 8 8 7 7 7 7 7 9 13 12 10 8 6 6 5 5 5 6 5 5 5 5 5 5 5 4 5 6 6 5 6 6 6 7 4 4 5 5 5 5 5
15 16 17 15 13 14 14 13 13 13 13 14 14 13 12 12 12 13 15 14 12 12 13 14 14 15 15 14 13 12 11 10 13 17 14 11 12 10 10 9 8 7 7 6 6 6 7 7 7 11 13 13 10 12 13 13 12 8 6 4 5 4 5 5 6 6 5 6 6 5 6 7 6 6 5 5 4 3 4 4 5 4 4 5 5
15 15 16 14 13 13 13 13 12 13 14 12 12 12 12 11 10 11 12 13 13 12 13 15 14 14 15 15 15 12 11 11 18 18 19 17 11 9 9 9 8 8 8 6 6 6 5 6 6 7 8 7 7 11 12 13 12 12 12 11 8 6 5 6 6 5 6 7 6 6 7 8 8 7 7 5 3 4 3 3 5 4 4 6 8
16 15 14 13 13 13 12 12 12 12 11 12 11 11 10 10 10 10 11 13 12 11 13 14 13 13 13 14 14 13 11 14 18 18 17 17 15 10 9 8 8 7 7 6 5 5 5 6 5 4 4 4 4 6 10 13 14 14 13 12 12 12 11 10 9 7 7 7 7 7 7 8 7 5 6 5 3 2 3 3 3 5 6 7 7
15 14 13 14 13 13 12 12 12 11 11 10 10 10 10 10 10 10 11 10 9 9 10 12 13 12 12 13 14 13 11 14 18 18 15 16 16 13 9 8 7 8 7 7 5 5 5 5 5 5 4 5 3 3 3 6 10 13 13 13 12 11 12 12 10 9 7 8 9 9 8 7 8 6 3 2 0 3 3 5 5 5 6 8 7
14 14 13 13 13 13 12 12 12 11 11 10 9 9 10 11 9 8 8 7 7 7 9 11 11 11 11 11 11 10 10 14 19 17 17 17 15 8 5 5 6 5 4 4 5 5 5 5 5 5 4 4 4 4 4 4 4 6 7 5 5 8 8 11 13 15 11 8 9 11 8 6 7 4 2 1 3 5 4 5 5 7 8 8 6
13 13 13 12 12 13 12 12 12 11 11 10 10 9 9 8 7 8 8 9 10 9 9 10 10 10 11 10 10 11 8 17 19 20 19 16 14 9 5 5 3 2 4 5 3 2 2 4 3 4 3 3 3 4 4 4 4 5 4 3 3 1 2 7 7 6 6 7 8 12 11 9 9 9 6 2 4 5 4 5 4 5 8 8 8
13 13 13 13 13 13 13 12 11 10 10 9 9 9 8 8 9 8 8 8 9 9 8 8 9 10 10 11 10 11 8 18 20 19 17 14 13 8 8 6 4 6 6 2 2 5 4 6 6 4 5 5 6 7 3 1 1 2 3 2 4 5 7 9 9 8 8 6 4 4 6 7 9 9 6 7 5 3 5 5 5 6 7 8 9
13 13 13 14 14 12 11 11 11 10 10 9 9 9 8 8 8 7 7 7 8 9 9 9 8 9 10 9 9 8 8 15 17 15 14 18 15 8 7 7 6 5 3 6 4 3 4 2 9 9 9 8 4 7 6 3 2 4 5 6 6 6 7 7 11 15 15 13 12 12 13 13 12 10 7 6 7 4 1 4 6 6 7 9 8
12 12 13 13 11 11 10 11 10 9 9 10 9 7 6 5 6 6 7 7 9 10 9 8 8 9 9 10 10 9 8 13 20 19 22 18 14 10 8 7 5 3 3 4 2 1 7 7 1 4 9 12 7 8 6 4 3 4 5 5 5 6 5 4 1 3 7 10 12 14 14 14 14 12 12 12 10 5 4 8 8 6 7 6 8
12 12 12 11 10 10 9 9 9 9 9 9 9 9 8 6 6 6 7 7 7 7 8 8 7 7 7 8 10 10 10 12 20 18 15 17 13 7 7 6 7 6 4 4 3 4 3 4 6 11 13 14 9 8 8 6 4 4 4 4 5 5 4 2 1 3 4 5 6 7 7 10 8 6 8 13 14 9 8 9 7 7 8 8 9
12 11 11 10 9 9 9 10 10 9 9 8 7 7 7 7 8 8 8 7 7 7 6 6 7 6 7 6 6 8 12 8 12 16 16 13 12 6 6 6 5 4 4 5 4 3 4 4 6 16 19 21 13 11 10 8 5 3 3 3 4 4 3 3 2 3 3 4 5 6 6 5 6 6 7 9 10 9 8 8 8 8 9 9 8
13 13 12 12 12 12 10 10 10 9 8 7 6 6 6 6 6 7 8 7 5 5 6 5 6 6 6 8 7 7 10 11 11 16 15 15 13 4 5 6 7 6 6 4 4 5 6 5 6 13 19 18 13 10 9 8 5 3 3 4 2 1 1 2 3 5 4 4 5 5 6 6 6 6 6 3 4 4 6 7 9 9 9 8 8
12 11 11 11 11 10 9 8 7 6 7 7 6 5 5 5 5 6 6 5 7 7 6 7 6 6 6 8 8 9 8 11 9 12 15 16 14 9 5 6 6 7 6 5 5 7 6 5 7 6 7 7 5 6 6 6 4 3 2 5 5 1 1 2 4 4 5 4 4 4 5 5 5 5 4 3 5 7 7 6 7 8 8 9 9
13 12 12 12 12 11 10 11 9 7 7 7 7 6 5 4 4 6 6 7 8 7 7 7 8 8 7 6 6 6 7 9 14 11 14 15 15 16 14 8 10 7 7 8 9 7 5 5 2 5 6 8 8 7 7 6 5 4 5 5 4 2 3 3 3 3 3 4 5 5 5 5 5 3 4 4 6 3 2 2 5 7 7 6 6
13 13 12 11 11 11 10 11 8 7 7 7 6 6 5 5 6 6 6 7 7 7 6 7 6 7 6 6 6 8 9 8 12 17 13 14 15 16 15 12 11 6 5 5 4 4 4 1 5 7 8 8 7 7 6 7 3 3 4 4 4 3 3 3 3 4 5 5 5 4 4 4 4 4 5 5 3 3 3 4 4 7 6 6 7
13 12 11 11 10 11 10 9 8 7 7 7 6 7 7 5 6 6 6 6 6 6 6 6 6 6 7 7 8 8 8 9 7 8 12 12 14 16 13 10 8 7 2 2 3 2 7 10 9 7 7 6 6 6 5 7 4 5 5 5 5 3 4 4 4 3 4 3 4 4 5 5 5 5 2 2 2 2 3 4 5 5 7 8 7
12 12 12 11 11 11 10 10 8 7 7 6 6 6 6 7 6 5 5 5 5 6 6 6 6 6 7 7 8 8 8 7 7 7 8 10 10 11 12 11 8 7 5 1 7 8 8 8 9 8 7 6 4 4 5 6 9 9 7 6 4 4 4 4 4 3 2 3 3 4 4 4 3 3 4 3 4 6 6 6 5 6 4 4 6
12 11 11 10 10 9 9 7 7 7 6 6 6 5 5 4 5 6 5 5 5 5 4 5 6 7 8 8 8 8 7 6 5 5 4 5 4 4 5 5 7 7 4 5 6 3 5 6 5 8 6 10 10 3 4 6 5 4 5 5 5 5 4 5 5 4 3 3 3 4 4 4 3 4 3 2 4 4 4 4 5 4 5 5 6
11 11 11 9 8 7 7 11 9 6 5 6 5 4 3 2 4 4 3 4 6 6 6 6 7 8 9 9 9 8 7 7 7 8 8 7 6 5 5 4 5 4 4 4 5 7 6 6 6 5 5 6 6 5 5 5 6 5 6 6 5 4 5 2 2 2 3 4 4 4 4 4 4 2 3 4 4 5 4 3 3 5 4 5 6
11 11 9 8 7 7 7 7 8 8 8 8 8 7 5 5 5 5 6 5 1 6 6 6 6 6 8 8 9 8 7 8 10 8 8 8 7 7 6 6 5 4 6 4 7 8 6 6 7 8 8 8 8 6 5 5 4 4 4 3 5 7 6 5 4 4 4 4 5 5 4 1 2 3 4 4 4 4 3 4 3 5 6 6 7
11 11 9 9 10 8 7 8 9 8 8 7 7 8 12 13 11 6 4 8 8 7 7 5 6 8 7 5 4 9 10 8 7 10 10 11 10 7 4 5 3 4 7 4 1 3 7 8 9 9 8 7 5 3 5 4 5 4 4 3 2 3 2 2 4 3 2 3 4 1 2 2 4 4 4 4 4 5 3 4 5 6 6 6 7
9 10 11 11 10 9 9 9 8 8 8 8 7 8 7 9 15 16 11 9 9 10 12 11 11 11 9 6 6 12 11 11 11 11 12 12 12 11 10 8 8 8 6 2 2 3 4 5 6 5 5 5 4 6 4 4 4 4 4 3 4 5 3 4 2 0 2 1 2 1 2 2 3 3 4 5 5 4 5 5 6 6 5 6 6
9 9 9 10 10 9 10 9 9 8 8 7 7 7 7 7 8 13 13 11 12 13 12 10 11 13 13 13 9 5 7 10 13 13 13 13 12 12 11 10 8 8 4 4 1 3 4 4 5 5 4 5 2 1 2 3 4 3 3 4 4 2 2 2 2 1 3 2 2 3 4 4 4 4 5 4 3 4 5 5 5 5 6 5 6
7 9 10 10 9 10 11 9 8 8 8 8 7 7 7 7 8 5 7 10 14 14 14 13 12 12 12 11 12 12 12 11 13 13 12 12 12 12 11 9 8 5 4 3 3 5 5 5 5 4 4 3 2 0 2 3 3 4 4 1 1 1 1 2 2 1 1 1 1 3 2 2 3 3 3 3 4 5 5 6 5 5 5 6 5
11 9 9 11 10 10 10 9 8 7 7 7 7 8 8 8 7 8 7 6 7 10 13 14 11 12 12 12 14 14 13 13 13 13 12 12 12 11 11 6 7 7 4 2 3 4 4 5 4 2 1 1 2 2 2 1 1 4 4 2 1 2 3 5 2 2 2 2 2 3 3 4 4 4 4 4 5 5 5 4 5 6 4 4 6
7 11 16 12 10 10 9 8 8 7 7 7 7 8 8 8 9 8 8 8 8 8 6 5 9 10 7 8 9 11 12 11 11 11 10 9 10 11 10 5 2 1 2 3 2 3 3 3 4 2 5 4 5 4 3 4 4 3 2 3 3 2 5 3 4 6 6 5 3 3 4 5 5 5 4 5 5 5 5 5 5 5 4 6 6
6 8 10 12 8 6 7 6 6 7 7 7 7 6 7 8 9 8 8 8 8 8 7 6 4 5 11 11 9 11 11 11 11 10 9 8 5 3 4 4 3 4 4 4 4 5 2 2 4 3 3 5 4 4 3 3 3 1 2 3 2 3 4 2 3 3 3 3 4 4 4 4 5 4 4 4 5 4 4 5 5 5 5 6 6
7 6 7 7 7 7 7 7 7 7 6 6 6 6 7 7 8 9 8 8 8 8 8 8 7 5 5 4 7 10 9 10 9 9 9 7 3 1 2 3 4 4 6 6 5 2 1 1 3 2 1 1 2 1 1 1 1 2 0 1 2 3 3 4 2 1 3 3 4 3 4 5 4 3 4 4 4 4 5 4 5 6 6 8 8
7 5 4 4 6 7 7 7 8 8 7 5 6 6 7 7 7 7 8 8 8 9 9 8 8 7 7 6 7 4 5 6 8 7 4 3 2 3 4 4 4 4 4 4 3 3 3 3 2 1 2 1 1 2 3 2 2 2 2 1 5 5 3 1 2 1 0 3 4 5 5 3 3 4 3 4 4 5 4 5 6 7 6 7 6
6 11 12 10 7 8 7 6 7 7 7 6 6 5 6 5 6 6 7 7 8 8 8 8 7 7 7 7 6 7 7 5 4 5 5 5 5 4 4 4 4 5 1 2 4 3 2 2 3 3 2 1 2 2 3 3 3 3 4 5 3 1 1 1 2 2 4 4 4 2 3 3 4 3 3 4 4 4 5 7 7 6 6 6 6
8 7 7 9 6 6 6 6 6 5 5 6 6 6 5 5 6 7 7 7 7 7 7 7 7 7 8 9 8 7 5 5 5 5 5 4 4 4 4 5 5 2 1 1 2 2 2 2 3 1 2 3 2 1 2 1 2 4 5 4 2 3 3 3 4 3 3 2 2 2 3 3 3 4 3 4 4 5 6 6 5 6 6 6 6
6 7 6 5 7 6 6 6 5 5 5 4 4 5 6 5 5 6 6 6 6 7 6 6 7 7 9 10 12 10 5 5 5 4 5 5 4 4 4 4 3 2 2 1 3 3 2 2 3 1 2 2 2 1 1 1 1 6 2 3 2 2 3 3 3 4 3 2 1 2 3 2 3 4 4 4 5 6 5 5 5 6 6 6 7
6 5 5 6 7 6 5 4 5 6 5 6 6 4 4 5 5 4 6 7 7 7 5 5 6 8 11 17 14 12 5 3 4 4 5 5 5 5 4 2 2 3 2 0 2 3 3 2 1 1 2 3 3 3 2 2 4 2 1 1 2 2 3 3 2 2 1 2 2 2 2 3 3 3 4 4 4 4 4 5 6 5 5 6 7
5 5 4 5 5 4 4 5 4 5 5 5 5 5 5 5 5 4 4 4 5 6 8 7 6 6 6 8 11 9 3 3 3 3 4 5 4 2 2 2 2 2 2 1 2 3 4 5 5 4 3 2 2 4 3 2 2 3 1 1 2 3 3 2 2 2 2 1 2 4 3 3 3 4 4 4 4 4 5 6 5 5 5 6 6
5 3 4 4 3 3 3 4 3 3 2 4 6 4 4 3 4 4 5 4 4 4 8 7 7 7 6 5 5 5 4 4 4 2 1 1 3 2 2 2 2 3 3 2 2 2 2 1 1 1 1 1 2 4 6 5 3 3 2 3 3 3 3 3 3 3 3 3 3 3 3 3 4 3 4 4 4 5 5 5 6 5 6 5 7
3 3 4 5 4 4 4 5 4 5 5 5 5 4 4 3 4 3 4 5 4 4 9 8 8 7 6 6 6 6 6 7 3 2 2 2 3 3 3 2 4 3 2 2 2 2 3 2 2 2 3 5 5 2 1 3 2 1 2 2 2 2 2 2 2 4 3 2 2 3 3 4 4 4 4 5 5 5 5 5 6 6 5 6 6
3 4 5 5 6 4 4 3 4 5 5 5 5 4 4 4 3 3 4 4 3 4 7 8 7 7 6 5 5 4 3 2 3 3 3 3 2 3 5 3 6 2 3 2 3 4 2 3 3 3 2 2 3 4 2 0 1 1 2 2 2 3 4 5 5 4 4 4 4 4 4 4 4 4 6 5 4 4 5 6 6 4 5 6 7
3 4 4 6 7 5 5 5 5 4 4 5 4 4 3 3 3 3 3 4 4 4 4 6 7 5 5 3 3 3 3 4 4 4 4 4 4 4 4 4 7 6 4 4 2 3 3 2 1 2 2 1 1 1 1 1 0 2 3 3 1 4 4 3 3 4 5 5 4 4 4 4 5 5 6 5 4 5 5 6 5 5 5 6 7
1 3 4 1 6 6 6 5 5 4 4 3 3 4 3 4 3 3 4 4 3 4 4 4 5 6 6 6 5 5 5 4 3 2 3 4 5 4 2 2 3 4 3 3 3 3 3 2 2 1 1 1 1 1 1 1 2 2 3 5 4 4 5 4 3 5 3 3 3 4 4 5 5 5 5 5 5 5 5 4 4 4 6 7 7
2 2 4 4 4 5 6 6 5 5 5 5 4 4 5 4 3 3 3 4 4 4 5 6 5 6 6 4 4 4 3 2 2 2 2 3 2 1 3 3 4 5 3 2 2 4 4 3 3 2 0 2 2 1 1 2 2 1 5 4 6 10 11 10 6 4 3 3 3 3 4 5 5 5 6 6 5 5 4 4 4 5 6 7 7
1 2 3 3 3 3 3 4 5 4 4 4 4 3 4 4 5 4 5 6 5 4 5 6 4 4 4 4 3 3 4 3 3 2 2 2 2 1 1 3 3 4 3 2 2 4 4 3 4 3 2 2 2 2 2 2 3 2 6 6 10 11 10 9 7 6 4 3 3 3 4 5 5 5 5 5 5 5 4 4 5 6 6 7 6
2 2 3 3 3 2 2 2 1 4 5 2 5 4 4 5 4 5 4 2 2 1 2 1 1 1 2 2 2 2 2 3 3 3 3 3 2 1 1 2 3 5 4 3 3 3 5 4 4 5 5 5 4 3 2 3 1 6 8 11 10 10 9 7 4 4 2 2 3 3 4 4 5 5 6 5 4 4 4 5 6 6 6 6 4
Wind_Direction
189 190 186 185 181 185 188 190 192 191 191 189 189 188 189 188 186 187 174 183 172 168 172 176 179 182 187 189 191 186 182 185 181 178 179 183 200 208 198 183 182 184 195 210 211 214 192 191 202 201 198 210 208 212 221 220 207 207 201 198 208 210 211 220 237 258 248 230 254 265 282 299 290 268 266 239 223 224 224 219 227 244 253 250 249
191 188 185 184 186 186 189 191 192 191 192 191 192 187 187 190 184 184 180 181 174 174 176 178 178 180 188 189 191 181 178 183 180 175 179 182 204 201 212 189 181 179 183 207 226 220 191 198 215 222 216 221 215 218 218 233 222 219 212 205 213 221 209 225 232 244 263 243 258 247 255 232 276 230 237 235 243 230 219 213 222 246 262 269 262
189 185 185 187 188 187 187 190 191 192 193 192 194 190 188 187 184 188 183 181 176 177 177 179 177 180 185 185 185 180 177 184 184 176 179 186 195 197 204 210 182 179 184 198 207 201 211 212 216 219 219 227 224 226 233 236 232 231 238 224 225 224 225 221 228 249 264 264 255 279 266 252 253 284 289 291 277 269 248 223 228 236 241 243 251
187 182 186 189 189 187 189 190 190 192 194 195 194 195 192 188 185 188 187 181 177 178 179 183 178 176 181 181 187 182 180 183 186 183 183 186 187 194 198 202 196 186 183 195 205 207 213 213 220 224 216 218 219 222 225 233 230 217 223 238 245 242 234 240 233 249 266 282 259 254 262 266 253 251 254 254 276 276 262 248 233 245 257 271 277
186 184 187 190 189 190 190 189 190 192 194 192 194 194 192 191 186 188 187 187 180 178 178 182 177 175 183 181 182 187 184 183 186 188 183 182 185 191 197 196 196 190 194 199 205 205 205 211 217 220 219 224 227 229 225 233 230 224 224 219 224 231 235 235 243 232 245 258 273 253 256 259 249 246 238 244 243 261 269 250 244 245 250 250 263
187 185 187 187 188 190 190 191 191 194 193 194 194 194 194 189 187 186 187 188 182 180 178 181 179 181 186 185 182 180 181 185 189 192 185 179 185 191 196 197 194 192 194 199 210 212 214 213 218 229 230 223 223 224 226 229 226 224 228 230 222 221 226 230 232 240 237 249 264 282 262 261 266 246 233 225 233 245 261 275 287 282 275 276 263
184 184 188 191 188 190 189 192 192 194 190 192 193 193 196 193 190 189 187 190 187 185 183 181 179 183 185 183 179 182 186 188 188 191 189 183 187 190 195 196 194 196 201 205 214 217 217 216 221 222 226 227 228 229 234 237 234 235 225 225 226 227 236 235 233 235 236 245 250 253 267 258 253 269 246 236 233 222 241 258 270 253 250 246 258
185 182 188 190 189 188 191 191 189 192 192 191 192 194 196 194 187 182 185 189 188 189 188 182 178 182 183 183 184 185 189 189 186 191 191 185 184 189 192 193 196 201 205 208 212 218 214 217 222 220 219 218 219 219 222 233 227 234 225 220 222 228 232 235 234 235 237 241 240 255 258 275 275 271 273 260 257 253 232 234 247 255 250 236 232
185 182 186 191 189 188 187 188 190 191 190 188 190 192 193 192 183 179 185 192 194 195 193 185 177 181 181 185 184 184 190 192 187 187 188 187 186 189 192 190 194 196 204 210 212 219 224 227 230 228 222 218 212 212 213 211 218 227 223 217 227 225 226 227 233 238 247 253 263 263 269 269 264 270 271 259 248 250 237 225 245 242 247 257 252
185 183 185 189 184 183 184 185 187 187 188 188 190 190 191 192 189 186 186 190 191 188 180 184 181 181 182 186 188 188 190 190 189 186 189 187 188 189 186 190 193 198 202 211 219 218 228 234 236 229 228 229 221 214 212 216 222 226 225 217 224 224 221 227 233 234 236 247 252 250 254 256 256 247 252 252 251 258 267 257 263 263 267 267 264
184 183 184 183 180 178 180 183 183 187 187 185 186 188 191 192 194 189 186 187 189 178 175 184 186 184 184 186 188 190 191 191 183 183 189 190 187 187 184 186 192 197 202 203 212 219 230 231 234 236 232 223 214 212 215 220 224 231 240 241 233 227 234 238 239 233 237 241 240 236 241 248 250 254 253 265 257 257 257 275 278 287 285 289 286
182 182 178 176 175 175 177 178 180 182 181 181 182 187 189 194 196 189 184 185 191 180 178 182 184 185 187 188 189 192 190 186 177 179 182 185 189 187 187 190 193 195 195 206 213 223 229 238 245 246 243 237 230 215 217 215 218 225 232 237 242 243 237 238 246 250 246 247 248 249 254 253 253 247 254 251 256 290 283 284 283 289 284 276 274
178 175 172 172 170 170 169 173 174 174 177 175 173 178 186 193 197 190 185 182 183 183 182 178 186 188 187 187 191 189 193 173 174 170 178 186 188 188 187 185 187 193 196 203 204 213 218 220 237 243 245 242 244 242 208 215 227 230 231 236 245 245 249 251 249 251 256 253 253 254 250 258 257 249 249 263 332 276 277 274 275 272 273 274 270
173 170 166 168 164 164 166 169 172 172 167 170 172 179 188 194 195 183 173 168 176 180 189 186 187 189 187 187 190 185 195 168 165 166 186 189 190 192 189 179 194 194 200 210 210 214 210 220 220 232 230 236 236 235 243 239 212 216 231 227 232 248 246 250 251 245 243 253 259 259 258 278 273 270 257 262 268 265 268 269 271 272 264 264 280
168 164 161 156 158 163 166 167 167 165 166 172 176 185 189 189 189 185 182 174 179 189 189 195 190 189 185 184 190 188 182 165 153 174 186 185 185 197 202 196 207 230 248 228 233 296 269 251 245 248 244 247 231 241 250 246 240 224 203 197 222 243 264 262 243 222 214 223 248 267 273 275 287 293 281 256 261 263 258 264 263 268 274 280 279
163 158 157 157 160 160 161 159 156 157 162 168 178 186 185 188 194 193 191 183 181 180 187 199 193 192 188 186 191 183 157 156 155 174 176 171 179 198 207 195 194 206 216 114 196 231 239 246 247 248 260 245 245 242 214 133 293 237 185 229 254 246 248 244 244 242 242 246 222 231 240 257 271 251 247 258 252 270 272 267 267 264 270 269 265
162 157 156 161 159 155 152 153 157 162 164 168 181 184 186 186 192 190 193 187 178 179 184 192 189 193 190 179 173 175 140 160 146 164 163 181 188 191 191 192 198 209 188 171 201 240 246 8 15 342 315 291 235 186 193 163 228 228 225 229 230 234 246 250 240 244 242 238 248 252 258 274 279 277 266 241 236 233 283 293 269 270 268 271 268
156 151 159 162 156 158 154 155 158 164 168 171 170 171 182 181 186 180 187 177 184 187 183 188 189 187 186 178 176 168 144 156 158 176 186 180 175 188 184 186 163 201 195 174 161 72 46 45 306 276 267 266 201 191 194 166 197 231 252 256 266 262 262 267 243 196 230 233 248 255 253 259 266 256 251 248 228 179 196 239 251 256 261 270 283
153 157 155 150 153 148 147 154 156 164 168 172 171 171 180 182 185 178 190 191 190 182 184 185 173 173 177 175 165 153 143 167 175 175 176 183 187 180 171 158 151 190 161 106 153 177 173 170 225 247 254 261 200 182 178 176 199 224 243 253 258 264 274 311 23 173 201 218 232 231 236 234 235 239 245 245 250 230 214 237 250 255 258 258 268
146 149 151 149 149 142 152 153 155 164 163 171 171 169 167 179 188 187 195 197 199 188 169 165 158 160 154 133 101 134 144 146 167 171 194 178 182 182 148 130 129 151 145 175 209 223 215 215 230 249 253 257 220 188 180 186 214 218 239 246 247 253 39 350 311 301 283 231 228 238 255 260 252 251 247 241 237 238 236 242 251 248 250 256 253
151 154 150 151 150 152 155 156 155 154 159 168 169 159 160 179 184 171 179 183 151 135 150 147 137 134 155 138 127 131 145 153 182 186 177 168 185 158 134 157 185 164 171 184 195 205 208 215 224 243 244 239 227 191 184 191 198 219 213 239 243 107 306 279 291 297 293 289 278 262 244 235 237 244 257 270 279 256 243 234 241 241 244 244 242
142 143 145 144 144 143 134 125 135 150 154 158 160 163 160 169 169 159 171 152 151 154 151 166 159 152 176 189 158 167 173 168 153 178 166 171 169 163 189 187 171 159 169 177 195 224 230 218 242 237 213 217 198 166 168 174 195 226 176 108 120 178 255 274 276 258 260 271 280 282 279 284 285 293 294 310 309 280 261 241 230 234 231 238 254
135 136 136 140 142 142 138 140 148 158 153 157 154 156 145 150 137 143 144 148 163 170 166 164 170 175 171 158 167 162 153 168 159 160 175 169 172 179 190 177 164 163 183 203 210 217 222 227 118 78 100 112 133 149 162 163 164 222 148 141 142 199 254 257 263 274 272 266 266 268 275 275 288 312 309 288 261 272 26 347 329 313 306 303 292
137 141 144 145 141 135 136 143 152 154 148 146 148 142 139 151 141 151 151 155 164 161 155 163 169 177 169 164 130 133 145 138 155 158 170 176 181 192 197 174 159 181 199 226 219 215 231 159 103 106 103 117 132 154 163 174 203 168 161 161 188 214 241 251 241 239 246 252 254 272 293 303 294 274 265 258 293 340 340 318 308 309 306 308 305
141 142 138 133 133 139 143 151 151 151 145 147 141 135 138 136 137 147 152 151 162 160 164 161 145 133 125 130 122 127 137 148 144 164 169 176 190 195 202 186 151 124 129 246 268 62 87 102 112 108 114 128 143 156 181 212 188 156 164 182 209 243 222 229 251 259 270 280 298 280 268 260 251 245 264 325 334 311 302 298 302 297 287 275 276
133 133 135 139 144 141 142 144 141 128 118 117 120 130 137 144 144 150 152 148 155 162 164 160 149 134 125 120 131 137 146 152 156 168 182 185 199 198 189 186 166 169 188 107 80 107 122 129 136 138 144 161 171 202 217 192 191 193 204 208 225 232 228 236 231 226 259 277 279 286 283 290 300 331 327 322 336 323 305 289 284 280 294 326 327
131 133 134 132 126 130 132 130 117 113 114 103 97 98 103 139 151 164 162 167 162 153 150 155 147 141 138 136 135 144 158 160 155 164 168 183 190 165 183 167 156 152 178 190 167 151 162 167 171 188 199 197 209 191 117 128 149 193 213 214 225 240 230 215 217 211 215 227 254 260 272 286 310 311 300 331 302 285 285 287 293 308 324 315 306
120 120 120 120 124 123 121 126 122 112 86 81 77 88 113 160 170 175 183 180 177 170 176 171 167 158 150 148 148 151 162 169 181 186 191 187 180 171 197 178 174 181 180 199 208 203 184 181 188 198 197 196 208 211 195 185 188 197 207 208 206 224 250 241 159 202 238 242 254 261 275 281 276 300 333 312 296 289 287 296 309 304 300 300 293
110 112 110 114 109 106 107 116 103 96 87 75 67 57 28 357 46 63 33 9 318 183 183 164 167 153 136 147 146 152 167 193 206 197 185 177 162 167 185 188 176 181 201 201 211 203 155 162 194 204 207 205 200 194 180 187 203 218 236 210 203 210 214 206 230 221 220 230 238 235 237 297 323 310 290 296 285 292 299 303 296 292 284 273 273
128 131 136 137 139 136 137 112 104 106 102 102 97 79 64 56 32 36 46 3 9 32 101 138 143 137 127 114 130 170 190 190 125 150 165 171 166 157 104 91 115 150 157 179 273 199 172 196 206 213 211 214 198 184 204 199 196 200 218 260 287 289 274 245 222 236 215 234 255 223 28 318 292 291 288 294 303 289 303 310 292 278 274 277 279
144 147 148 148 146 144 116 109 115 107 111 112 109 105 94 52 49 44 39 25 24 56 83 85 103 123 138 140 61 49 89 112 126 130 127 125 124 118 109 95 82 75 57 67 175 240 269 262 262 269 263 261 219 198 197 201 204 192 195 203 217 224 231 245 269 83 281 345 6 318 263 294 305 316 316 298 287 296 298 277 266 273 276 285 289
154 158 149 123 131 134 120 118 119 119 117 116 112 123 114 104 59 41 36 33 43 48 48 74 110 123 121 123 121 66 74 106 120 122 124 125 124 119 113 106 89 79 89 105 188 250 265 265 257 252 263 267 264 156 200 176 171 199 200 227 215 184 208 257 110 50 38 3 354 343 336 310 300 287 273 277 292 298 290 291 289 288 288 286 286
106 94 103 121 119 104 112 117 121 127 136 133 136 136 135 128 123 106 42 50 58 57 53 49 64 93 114 121 128 137 145 143 129 126 127 126 118 111 102 88 79 57 92 118 222 237 235 246 259 261 258 268 323 16 140 163 183 210 212 203 64 103 326 98 138 65 330 337 264 260 269 297 294 299 306 332 328 302 294 284 286 291 292 292 304
111 116 120 121 116 115 119 126 132 136 147 153 157 160 156 153 147 139 129 124 80 62 54 47 52 76 69 88 104 110 123 128 128 127 126 127 129 127 110 92 78 57 69 235 244 252 249 249 266 286 294 146 259 333 360 11 84 32 49 25 3 348 14 54 36 336 319 334 337 346 357 333 326 327 326 307 283 278 282 294 299 295 298 313 317
107 120 118 115 115 124 128 137 143 147 156 160 160 169 162 155 150 158 159 151 145 136 129 74 25 25 85 87 84 99 102 103 104 108 108 108 102 105 96 91 94 191 192 233 246 276 290 297 278 26 32 7 61 66 53 22 28 33 20 357 358 7 67 33 12 24 10 347 348 353 7 336 315 291 276 278 290 298 300 303 303 302 314 322 314
120 128 128 128 132 135 142 145 145 144 161 165 172 159 146 151 160 169 162 155 147 144 132 102 98 73 76 74 84 90 90 89 90 88 86 82 77 75 126 166 184 191 189 192 224 210 240 324 356 16 35 53 35 40 37 16 41 342 34 30 352 320 268 148 87 71 44 338 316 313 305 284 270 282 301 294 293 302 313 307 304 320 321 311 303
134 131 135 144 140 143 136 138 137 145 156 154 149 141 153 157 164 164 165 163 143 136 122 128 130 120 103 89 92 81 85 95 94 87 79 76 56 303 245 240 214 195 189 187 202 221 168 82 60 33 58 45 35 306 176 109 71 311 273 228 282 304 42 79 68 29 359 325 301 284 277 269 272 287 298 308 317 318 307 311 331 321 310 294 293
136 147 161 124 130 117 126 140 135 133 152 160 150 155 164 167 167 150 149 143 133 131 142 154 153 147 151 148 174 148 108 100 100 90 101 99 114 203 225 247 253 269 189 199 187 164 149 120 108 36 39 72 199 348 350 357 351 314 341 56 65 48 78 351 158 154 232 262 269 264 253 279 318 316 324 328 318 307 322 336 320 303 297 303 311
90 86 85 86 101 129 137 127 132 157 162 159 157 158 146 152 142 142 137 134 136 143 146 154 158 159 144 144 143 127 131 144 173 171 173 187 191 198 213 228 252 255 264 82 83 73 110 111 92 75 84 34 2 65 40 351 355 348 6 340 314 143 82 283 266 219 222 222 238 287 344 325 303 312 328 319 318 337 331 305 296 303 311 317 313
103 106 98 105 115 111 136 139 164 162 152 157 157 153 146 154 147 144 145 151 146 142 152 158 165 154 140 149 145 159 176 166 182 175 175 177 188 191 206 228 238 257 91 56 68 72 56 72 93 103 93 93 104 102 83 318 315 356 313 276 334 11 345 326 319 280 260 291 357 332 297 296 319 349 340 323 325 314 294 297 308 312 316 312 314
130 121 131 130 123 140 152 168 163 158 158 153 156 155 151 144 152 150 152 152 153 149 160 169 172 145 145 150 155 169 177 177 176 177 173 176 181 198 209 225 234 165 129 117 104 115 132 98 112 176 223 158 114 116 219 257 265 249 233 45 359 274 265 266 271 289 295 283 300 309 303 335 7 356 315 306 288 284 299 314 316 315 315 318 325
114 132 138 128 141 160 159 158 150 164 157 152 144 140 145 151 158 170 156 167 157 166 155 81 76 115 132 145 160 173 197 199 193 182 172 183 194 196 200 192 86 51 15 42 114 111 100 101 117 143 198 213 206 192 192 211 241 252 53 299 312 297 279 274 290 314 39 22 283 280 3 0 317 285 288 296 302 316 326 321 312 311 323 327 318
130 147 149 147 177 158 164 140 159 165 152 154 145 145 154 153 154 141 152 157 156 142 104 108 105 105 128 152 162 168 221 249 214 212 204 189 197 172 133 150 110 135 190 190 135 165 176 191 206 213 208 187 195 224 195 204 82 56 27 318 277 293 300 292 270 287 297 320 16 23 353 310 314 324 316 302 320 335 324 306 310 324 326 320 321
136 167 151 151 131 117 110 117 135 121 181 109 103 119 134 145 137 143 150 156 157 142 120 120 126 129 128 131 149 179 218 231 238 224 221 106 104 102 139 162 188 173 166 160 55 65 78 22 358 350 73 97 353 24 52 58 42 25 20 341 327 315 317 336 324 317 7 20 5 334 311 319 323 320 315 327 336 322 307 314 323 322 322 325 326
163 173 157 170 143 130 128 147 157 127 105 109 126 128 135 150 148 153 157 160 152 131 115 133 131 138 141 153 174 195 217 227 215 184 142 169 157 176 217 199 110 119 97 102 108 87 75 59 14 8 17 49 78 131 86 50 49 326 332 318 303 286 302 342 29 39 29 354 334 327 327 323 327 326 323 324 312 309 319 325 316 316 326 329 322
183 164 176 162 125 122 111 129 128 136 142 146 138 162 165 161 158 174 162 176 176 162 136 143 148 148 159 196 194 191 191 183 206 209 186 188 203 201 217 164 130 125 95 67 82 90 60 28 22 360 351 38 32 50 59 129 66 38 330 336 333 320 14 22 25 26 19 12 352 342 331 333 327 322 309 302 318 327 317 311 302 321 333 326 314
166 156 163 145 143 139 144 150 148 160 162 152 163 164 161 165 149 153 148 150 173 166 174 153 146 162 162 158 156 176 170 183 206 205 204 202 207 220 222 168 146 138 142 119 122 106 104 93 51 15 314 285 213 86 46 27 182 181 190 210 290 52 56 34 40 24 22 15 5 340 335 322 309 299 307 320 326 313 314 304 318 336 338 320 306
30 135 120 154 143 136 136 146 148 134 115 123 139 160 147 123 128 143 152 146 173 161 167 150 179 168 156 175 178 172 184 192 190 211 213 220 216 210 158 71 83 109 113 125 128 114 108 140 116 78 14 39 347 198 148 262 288 262 73 69 72 82 59 46 50 52 35 356 331 307 295 294 298 300 306 315 306 304 302 318 335 339 321 309 301
158 138 139 162 169 152 156 164 170 176 148 145 169 189 136 145 147 158 179 175 182 192 158 162 196 159 162 178 177 175 150 184 177 199 263 295 335 355 128 131 134 136 154 168 149 138 156 149 116 127 153 98 95 283 234 211 232 198 104 106 97 92 76 66 66 33 349 304 302 302 297 299 303 308 303 295 297 297 306 334 344 321 306 299 299
69 122 136 144 151 148 156 163 175 178 165 148 146 164 169 167 180 183 186 197 186 202 157 168 191 133 161 182 171 161 173 186 184 198 223 247 250 282 88 147 139 132 148 187 165 156 155 155 161 152 149 171 167 157 243 225 232 109 109 120 123 108 103 93 86 56 16 352 329 312 307 298 291 288 292 295 292 307 334 341 319 302 295 297 302
80 103 134 116 108 105 131 174 146 93 78 166 180 186 173 179 180 174 206 127 134 196 100 204 191 171 183 180 159 159 177 202 201 190 193 210 218 199 225 226 155 152 179 174 184 160 158 159 166 160 163 171 191 174 194 234 157 109 126 131 126 114 118 119 118 102 78 345 295 296 285 289 292 295 292 295 313 320 325 317 297 291 297 295 314